Regional Weather Roundup
Issued by NWS

Home | Current Version | Previous Version | Text Only | Print | Product List | Glossary Off
Versions: 1 2 3 4 5 6 7 8 9 10 11 12 13 14 15 16 17 18 19 20 21 22 23 24 25 26 27

000
ASUS45 KPSR 270510
RWRAZ

ARIZONA HOURLY REGIONAL WEATHER ROUNDUP
NATIONAL WEATHER SERVICE PHOENIX AZ
1000 PM MST WED APR 26 2017

NOTE: FAIR INDICATES FEW OR NO CLOUDS BELOW 12,000 FEET WITH NO
SIGNIFICANT WEATHER AND/OR OBSTRUCTIONS TO VISIBILITY.

AZZ001>003-036-270600-
NORTHWEST ARIZONA

CITY           SKY/WX    TMP DP  RH WIND       PRES   REMARKS
BULLHEAD CITY  PTCLDY    84  28  13 S17G23    29.60S
KINGMAN        PTCLDY    69  30  23 SW17      29.73F
$$

AZZ004>008-015-016-018-270600-
NORTH CENTRAL ARIZONA

CITY           SKY/WX    TMP DP  RH WIND       PRES   REMARKS
GRAND CANYON   PTCLDY    50  25  37 SW13      29.87R
WILLIAMS       PTCLDY    52  21  30 SW15G26   29.90R
PRESCOTT       CLEAR     60  27  28 VRB5      29.86F
FLAGSTAFF      CLEAR     51  20  29 SW15G28   29.90R
PAYSON         CLEAR     59  21  23 VRB3      29.90F
PAGE           PTCLDY    66  29  24 VRB6      29.67F
$$

AZZ009>014-017-270600-
NORTHEAST ARIZONA

CITY           SKY/WX    TMP DP  RH WIND       PRES   REMARKS
WINSLOW        CLEAR     62  25  24 SW22      29.78F
SAINT JOHNS    PTCLDY    57  21  24 SW20G30   29.84S
WINDOW ROCK    CLOUDY    55  30  38 W8G28     29.85S
SHOW LOW       CLEAR     50  18  27 S16       29.93F
$$

AZZ540-542>544-546-548-270600-
GREATER PHOENIX AREA

CITY           SKY/WX    TMP DP  RH WIND       PRES   REMARKS
PHOENIX        PTCLDY    79  27  14 SW7       29.70R
BUCKEYE        PTCLDY    75  28  17 SW6       29.71S
LUKE AFB       CLEAR     84  27  12 SW13      29.68S
DEER VALLEY    CLEAR     77  27  15 W8        29.70F
SCOTTSDALE     CLEAR     77  27  15 CALM      29.73F
MESA-GATEWAY   PTCLDY    75  27  16 W7        29.74S
$$

AZZ539-553-270600-
SOUTHWEST MARICOPA COUNTY AND PINAL COUNTY

CITY           SKY/WX    TMP DP  RH WIND       PRES   REMARKS
CASA GRANDE    MOCLDY    79  27  14 NW3       29.75S
GILA BEND      FAIR      80  32  17 S17       29.71R
$$

AZZ503-504-507>509-270600-
SOUTHEAST ARIZONA

CITY           SKY/WX    TMP DP  RH WIND       PRES   REMARKS
TUCSON         MOCLDY    76  26  15 W8        29.85R
DAVIS-MONTHAN  MOCLDY    73  26  17 W6        29.84R
NOGALES        MOCLDY    63  24  22 CALM      29.93R
SIERRA VISTA   MOCLDY    65  22  19 W10       29.95F
DOUGLAS        MOCLDY    60  20  21 NW5       29.91R
SAFFORD        PTCLDY    68  21  16 N8        29.81R
$$

AZZ532-270600-
SOUTHWEST ARIZONA

CITY           SKY/WX    TMP DP  RH WIND       PRES   REMARKS
YUMA           MOCLDY    77  41  27 S12       29.69F
$$

CAZ041-043-047-048-061-525>527-560>570-270600-
SOUTHERN CALIFORNIA

CITY           SKY/WX    TMP DP  RH WIND       PRES   REMARKS
DOWNTOWN L.A.  PTCLDY    64  55  72 CALM      29.83S
L.A. AIRPORT   PTCLDY    60  56  86 S5        29.83S
SAN DIEGO      PTCLDY    64  59  83 SW7       29.90R
BURBANK        MOCLDY    76  48  37 N12       29.81S
ONTARIO        MOCLDY    63  53  70 W5        29.84R
RIVERSIDE      MOCLDY    65  53  65 VRB3      29.84S
PALM SPRINGS   PTCLDY    80  46  30 SE5       29.68R
EL CENTRO NAS  MOCLDY    80  43  26 SW12      29.67S
IMPERIAL       CLOUDY    78  49  35 W9        29.65F
BLYTHE         PTCLDY    81  34  18 S12       29.67R
NEEDLES        PTCLDY    83  41  22 SW9       29.64S
$$

NVZ020-UTZ003-270600-
SOUTHERN NEVADA-UTAH

CITY           SKY/WX    TMP DP  RH WIND       PRES   REMARKS
LAS VEGAS      MOCLDY    77  40  26 SW14      29.62R
SALT LAKE CITY MOCLDY    47  44  90 SE7       29.73S
$$

NMZ009-TXZ055-270600-
NEW MEXICO-WEST TEXAS

CITY           SKY/WX    TMP DP  RH WIND       PRES   REMARKS
ALBUQUERQUE    MOCLDY    56  28  34 SE5       29.78F
EL PASO        PTCLDY    75  16  10 W17G43    29.76S
$$


........................KEY........................
SKY/WX - SKY CONDITION/WEATHER
TMP    - TEMPERATURE IN FAHRENHEIT
DP     - DEW POINT IN FAHRENHEIT
RH     - RELATIVE HUMIDITY IN PERCENT
WIND   - DIRECTION AND SPEED IN MILES PER HOUR (MPH)
VRB    - VARIABLE WIND DIRECTION
PRES   - MEAN SEA LEVEL PRESSURE IN INCHES OF MERCURY
         F - FALLING PRESSURE   R - RISING PRESSURE
         S - STEADY PRESSURE
VSB    - VISIBILITY IN MILES
HX     - HEAT INDEX IN FAHRENHEIT
WCI    - WIND CHILL INDEX IN FAHRENHEIT
TC     - TEMPERATURE IN CELSIUS WHICH IS ALSO KNOWN AS
         TEMPERATURE IN CENTIGRADE
AFB    - AIR FORCE BASE
         LUKE AFB IS LUKE AIR FORCE BASE
         DAVIS-MONTHAN IS DAVIS-MONTHAN AIR FORCE BASE
NAS    - NAVAL AIR STATION
         EL CENTRO NAS IS EL CENTRO NAVAL AIR STATION
N/A    - NOT AVAILABLE





USA.gov is the U.S. government's official web portal to all federal, state and local government web resources and services.